Regional Weather Roundup
Issued by NWS

Home | Current Version | Previous Version | Graphics & Text | Print | Product List | Glossary On
Versions: 1 2 3 4 5 6 7 8 9 10 11 12 13 14 15 16 17 18 19 20 21 22 23 24 25 26 27 28 29 30 31 32 33 34 35 36 37 38 39 40 41 42 43 44 45 46 47 48 49 50
000
ASUS43 KDMX 261304
RWRIA

WEATHER ROUNDUP FOR IOWA
NATIONAL WEATHER SERVICE DES MOINES IA
  ISSUED BY NWS QUAD CITIES IA IL
700 AM CST MON JAN 26 2015

NOTE: "FAIR" INDICATES FEW OR NO CLOUDS BELOW 12,000 FEET WITH NO
SIGNIFICANT WEATHER AND/OR OBSTRUCTIONS TO VISIBILITY.

* - THESE STATIONS ARE NOT NWS STATIONS...THUS NOT UNDER NWS
QUALITY CONTROL.  THEY ALSO DO NOT REPORT WEATHER SUCH
AS PRECIPITATION OR FOG.

IAZ001>003-012>014-020>022-031>034-043>046-261400-
   NORTHWEST IOWA

CITY           SKY/WX    TMP DP  RH WIND       PRES   REMARKS
CARROLL *      CLOUDY    32  30  93 S9        29.83F WCI  24
CHEROKEE *     CLOUDY    33  32  94 SW10      29.80S WCI  25
DENNISON *     CLOUDY    34  32  93 SW12      29.81F WCI  25
LE MARS *      MOCLDY    34  30  86 S7        29.82R WCI  28
ORANGE CITY *  PTCLDY    34  30  86 W8        29.80R WCI  27
SIOUX CITY     MOCLDY    33  29  85 W3        29.83F
SPENCER        CLOUDY    35  30  82 SW16      29.77S WCI  25
$$

IAZ055>058-069>071-079>083-090>094-261400-
   SOUTHWEST IOWA

CITY           SKY/WX    TMP DP  RH WIND       PRES   REMARKS
ATLANTIC *     CLEAR     28  28 100 SW12      29.88F WCI  18
AUDUBON *      PTCLDY    30  27  86 S12       29.85F WCI  21
CLARINDA *     CLEAR     23  23 100 S6        29.95F WCI  16
COUNCIL BLFS * CLEAR     32  32 100 SW13      29.86F WCI  22
CRESTON *      FAIR      28  28 100 SW14      29.91F WCI  17
HARLAN *       PTCLDY    27  27 100 S14       29.89F WCI  15
LAMONI         PTCLDY    26  24  92 SW12      29.94F WCI  16
RED OAK *      CLEAR     25  25 100 S8        29.92S WCI  16
$$

IAZ047>049-059>061-072>074-084-261400-
   CENTRAL IOWA

CITY           SKY/WX    TMP DP  RH WIND       PRES   REMARKS
AMES           CLOUDY    32  27  81 SW15      29.86F WCI  22
ANKENY *       CLOUDY    32  28  86 S9        29.91S WCI  24
BOONE *        MIX PCPN  32  30  93 SW15      29.82F WCI  22
CHARITON *     CLOUDY    30  28  93 SW13      29.92F WCI  20
DES MOINES     MOCLDY    33  27  78 S7        29.93F WCI  27
GRINNELL *     CLOUDY    30  27  89 SW10      29.91F WCI  21
KNOXVILLE *    CLOUDY    32  27  80 SW9       29.93S WCI  24
MARSHALLTOWN   CLOUDY    30  27  88 SW12      29.85F WCI  20
PELLA *        CLOUDY    31  28  86 SW8       29.95F WCI  24
PERRY *          N/A     32  30  94 S10       29.88F WCI  23
$$

IAZ004>006-015-016-023>025-035-036-261400-
   NORTH CENTRAL IOWA

CITY           SKY/WX    TMP DP  RH WIND       PRES   REMARKS
ALGONA *       CLOUDY    32  32 100 SW22      29.73F WCI  19
CLARION *      MIX PCPN  32  32 100 SW23      29.75F WCI  19
ESTHERVILLE    CLOUDY    33  30  88 SW28      29.71F WCI  20
FORT DODGE *   CLOUDY    30  27  86 S16       29.80F WCI  19
MASON CITY     CLOUDY    31  29  92 SW18      29.75F WCI  19
WEBSTER CITY * CLOUDY    32  32 100 SW18G24   29.79F WCI  20
IOWA FALLS *   CLOUDY    31  28  90 SW22      29.79F WCI  18
$$

IAZ007>011-017>019-026>030-037>042-050>054-066-261400-
   NORTHEAST IOWA

CITY           SKY/WX    TMP DP  RH WIND       PRES   REMARKS
CEDAR RAPIDS   CLOUDY    22  18  85 S8        29.92F WCI  12
CHARLES CITY * CLOUDY    28  28 100 S16G22    29.78F WCI  17
CLINTON *      CLOUDY    16  10  79 S5        29.98F WCI   9
DECORAH *      LGT SNOW  23  21  93 S9        29.83S WCI  13
DUBUQUE        CLOUDY    19  12  74 SW10      29.90F WCI   7
MONTICELLO *   CLOUDY    23  18  80 S8        29.92F WCI  14
OELWEIN *      LGT SNOW  23  21  93 S16       29.83F VSB 1   WCI  10
WATERLOO       CLOUDY    26  25  96 S12       29.84F WCI  16
$$

IAZ064-065-067-068-078-261400-
   EAST CENTRAL IOWA

CITY           SKY/WX    TMP DP  RH WIND       PRES   REMARKS
DAVENPORT      CLOUDY    19  13  77 S5        29.98R WCI  12
IOWA CITY      CLOUDY    22  18  85 S5        29.98S WCI  16
MT. PLEASANT * CLOUDY    25  21  86 S3        29.99R
MUSCATINE *    CLOUDY    23  19  86 S5        30.00S WCI  17
QUAD CITIES    CLOUDY    19  14  81 CALM      29.99R
$$

IAZ062-063-075>077-085>089-095>099-261400-
   SOUTHEAST IOWA

CITY           SKY/WX    TMP DP  RH WIND       PRES   REMARKS
BURLINGTON     CLOUDY    24  20  84 S3        29.99S
FAIRFIELD *    CLOUDY    28  25  86 S6        29.96R WCI  22
FORT MADISON * CLOUDY    27  23  86 S5        30.00R WCI  21
KEOKUK *       CLOUDY    27  23  86 SW6       29.98R WCI  20
OTTUMWA        CLOUDY    30  27  88 SW7       29.93F WCI  23
WASHINGTON *   CLOUDY    25  25 100 S5        29.97R WCI  19
$$

ABBREVIATIONS USED IN REMARKS
   TC - TEMPERATURES IN CELSIUS
  WCI - WIND CHILL INDEX
   HX - HEAT INDEX
  VSB - VISIBILITY
$$


USA.gov is the U.S. government's official web portal to all federal, state and local government web resources and services.